Weather History for KHRL - January, 2013

Change the Weather History Date:

Sunday, January 27, 2013

  Actual Average Record
Temperature  
Mean Temperature 75 °F 61 °F  
Max Temperature 84 °F 71 °F 88 °F (1950)
Min Temperature 65 °F 51 °F 30 °F (1932)
Degree Days  
Heating Degree Days 0 6  
Month to date heating degree days 176 178  
Since 1 July heating degree days 289 426  
Cooling Degree Days 10 2  
Month to date cooling degree days 42 50  
Year to date cooling degree days 42 50  
Growing Degree Days 23 (Base 50)    
Moisture  
Dew Point 66 °F    
Average Humidity 76    
Maximum Humidity 100    
Minimum Humidity 51    
Precipitation  
Precipitation T in 0.04 in 1.00 in (1934)
Month to date precipitation 2.56 0.88  
Year to date precipitation 2.56 0.88  
Sea Level Pressure  
Sea Level Pressure 30.01 in    
Wind  
Wind Speed 18 mph (SSE)    
Max Wind Speed 32 mph    
Max Gust Speed 41 mph    
Visibility 10 miles    
Events      
T = Trace of Precipitation, MM = Missing Value Source: NWS Daily Summary

Daily Weather History Graph

Daily Weather History Graph

Search for Another Location

Airport or City:

Trip Planner

Search our weather history database for the weather conditions in past years. The results will help you decide how hot, cold, wet, or windy it might be!

Date:

Astronomy

Jan. 27, 2013 Rise Set
Actual Time 7:17 AM CST 6:10 PM CST
Civil Twilight 6:52 AM CST 6:34 PM CST
Nautical Twilight 6:24 AM CST 7:02 PM CST
Astronomical Twilight 5:57 AM CST 7:29 PM CST
Moon 6:55 PM CST (1/27) 7:18 AM CST (1/27)
Length of Visible Light 11h 41m
Length of Day
10h 53m
Full, 100% of the Moon is Illuminated
Jan 27
Full
Feb 3
Last Quarter
Feb 10
New
Feb 17
First Quarter
Feb 25
Full

Hourly Weather History & Observations

Time (CST) Temp. Heat Index Dew Point Humidity Pressure Visibility Wind Dir Wind Speed Gust Speed Precip Events Conditions
12:52 AM 66.0 °F - 64.9 °F 96% 30.06 in 10.0 mi SE 13.8 mph - N/A   Clear
1:52 AM 66.9 °F - 64.9 °F 93% 30.05 in 10.0 mi SE 11.5 mph - N/A   Partly Cloudy
2:48 AM 66.2 °F - 64.4 °F 94% 30.03 in 10.0 mi SE 10.4 mph - N/A   Mostly Cloudy
2:52 AM 66.9 °F - 64.9 °F 93% 30.03 in 10.0 mi SE 10.4 mph - N/A   Mostly Cloudy
2:59 AM 66.2 °F - 64.4 °F 94% 30.03 in 10.0 mi SE 10.4 mph - N/A   Scattered Clouds
3:52 AM 66.0 °F - 64.0 °F 93% 30.02 in 10.0 mi SE 9.2 mph - N/A   Partly Cloudy
4:52 AM 64.9 °F - 64.0 °F 97% 30.01 in 9.0 mi SE 6.9 mph - N/A   Clear
5:52 AM 68.0 °F - 66.0 °F 93% 30.01 in 10.0 mi SE 10.4 mph - N/A   Overcast
6:52 AM 69.1 °F - 66.0 °F 90% 30.02 in 10.0 mi SE 10.4 mph - 0.00 in   Overcast
7:52 AM 69.1 °F - 66.9 °F 93% 30.03 in 10.0 mi SE 10.4 mph - N/A   Overcast
8:52 AM 72.0 °F - 69.1 °F 91% 30.05 in 10.0 mi SE 11.5 mph - N/A   Overcast
9:00 AM 71.6 °F - 69.8 °F 94% 30.05 in 10.0 mi SSE 12.7 mph - N/A   Overcast
9:25 AM 73.4 °F - 68.0 °F 83% 30.05 in 10.0 mi SSE 15.0 mph - N/A   Overcast
9:52 AM 73.9 °F - 66.9 °F 79% 30.06 in 10.0 mi SSE 17.3 mph 25.3 mph 0.01 in   Mostly Cloudy
10:52 AM 78.1 °F - 66.0 °F 66% 30.05 in 10.0 mi South 28.8 mph 34.5 mph 0.00 in   Overcast
11:52 AM 81.0 °F 82.5 °F 64.0 °F 56% 30.03 in 10.0 mi South 27.6 mph 36.8 mph N/A   Mostly Cloudy
12:52 PM 82.0 °F 83.1 °F 63.0 °F 52% 29.99 in 10.0 mi SSE 27.6 mph 35.7 mph N/A   Scattered Clouds
1:52 PM 82.0 °F 83.4 °F 64.0 °F 54% 29.96 in 10.0 mi SSE 27.6 mph 32.2 mph N/A   Mostly Cloudy
2:52 PM 80.1 °F 81.7 °F 64.0 °F 58% 29.96 in 10.0 mi SSE 26.5 mph 32.2 mph N/A   Overcast
3:52 PM 80.1 °F 81.9 °F 64.9 °F 60% 29.94 in 10.0 mi SSE 23.0 mph 29.9 mph N/A   Mostly Cloudy
4:52 PM 79.0 °F - 64.9 °F 62% 29.94 in 10.0 mi SSE 24.2 mph 31.1 mph N/A   Scattered Clouds
5:52 PM 75.9 °F - 64.9 °F 69% 29.96 in 10.0 mi SSE 21.9 mph 29.9 mph N/A   Mostly Cloudy
6:52 PM 75.0 °F - 66.9 °F 76% 29.97 in 10.0 mi SE 19.6 mph - N/A   Overcast
7:52 PM 73.0 °F - 66.9 °F 81% 29.99 in 10.0 mi SSE 20.7 mph 29.9 mph N/A   Overcast
8:09 PM 73.4 °F - 66.2 °F 78% 29.99 in 10.0 mi SE 20.7 mph 27.6 mph N/A   Overcast
8:52 PM 73.0 °F - 66.9 °F 81% 30.00 in 10.0 mi SSE 20.7 mph 28.8 mph N/A   Mostly Cloudy
9:52 PM 72.0 °F - 66.9 °F 84% 30.01 in 10.0 mi SSE 16.1 mph - N/A   Scattered Clouds
10:19 PM 71.6 °F - 68.0 °F 88% 30.00 in 10.0 mi SSE 16.1 mph - N/A   Mostly Cloudy
10:50 PM 71.6 °F - 68.0 °F 88% 30.01 in 10.0 mi SSE 15.0 mph - N/A   Overcast
10:52 PM 71.1 °F - 68.0 °F 90% 30.01 in 10.0 mi SSE 15.0 mph - N/A   Overcast
11:08 PM 69.8 °F - 68.0 °F 94% 30.01 in 10.0 mi SSE 15.0 mph - N/A   Overcast
11:17 PM 69.8 °F - 68.0 °F 94% 30.01 in 10.0 mi SSE 16.1 mph - N/A   Overcast
11:29 PM 71.6 °F - 68.0 °F 88% 30.01 in 10.0 mi SSE 11.5 mph - N/A   Overcast
11:52 PM 72.0 °F - 68.0 °F 87% 30.01 in 10.0 mi SSE 10.4 mph - N/A   Overcast